Regional Weather Roundup
Issued by NWS

Home | Current Version | Previous Version | Text Only | Print | Product List | Glossary Off
Versions: 1 2 3 4 5 6 7 8 9 10 11 12 13 14 15 16 17 18 19 20 21 22 23 24 25 26 27 28 29 30 31 32 33 34 35 36 37 38 39 40 41 42 43 44 45 46 47 48 49 50

000
ASUS43 KMKX 310000
RWRWI

WISCONSIN REGIONAL WEATHER ROUNDUP
NATIONAL WEATHER SERVICE MILWAUKEE/SULLIVAN WI
700 PM CDT MON MAY 30 2016

NOTE: "FAIR" INDICATES FEW OR NO CLOUDS BELOW 12,000 FEET WITH NO
SIGNIFICANT WEATHER AND/OR OBSTRUCTIONS TO VISIBILITY.

WIZ001-002-006>008-014>016-023>028-310100-
NORTHWEST WISCONSIN

CITY           SKY/WX    TMP DP  RH WIND       PRES   REMARKS
SUPERIOR ARPT  CLOUDY    65  48  52 NE6       29.91S
ASHLAND        MOSUNNY   74  48  39 E8        29.94R
6HR MIN TEMP:  74; 6HR MAX TEMP:  82;

HAYWARD        PTSUNNY   75  62  64 CALM      29.94F
6HR MIN TEMP:  72; 6HR MAX TEMP:  80; 6HR PCP:  0.02;

SIREN          SUNNY     81  49  32 S3        29.92F HX  80
CUMBERLAND     MOSUNNY   77  46  33 SW9       29.94F
RICE LAKE      SUNNY     80  48  32 S6        29.95F
CHETEK         SUNNY     79  53  40 SW5       29.94F
LADYSMITH      SUNNY     78  53  41 SW3       29.97S
EAU CLAIRE     NOT AVBL
MENOMONIE      SUNNY     81  51  34 SE6       29.93F HX  80
NEW RICHMOND   SUNNY     80  51  36 CALM      29.92F
OSCEOLA        SUNNY     81  50  34 SW5       29.94F HX  80
$$

WIZ003>005-009-010-017-018-310100-
NORTH CENTRAL WISCONSIN

CITY           SKY/WX    TMP DP  RH WIND       PRES   REMARKS
MANITOWISH WTR NOT AVBL
ARBOR VITAE    PTSUNNY   77  46  33 CALM      29.98S
WOODRUFF       PTSUNNY   77  46  33 CALM      29.98S
RHINELANDER    MOSUNNY   75  48  38 CALM      29.99R
6HR MIN TEMP:  74; 6HR MAX TEMP:  79;

EAGLE RIVER      N/A     74  40  30 N6        29.98R
LAND O LAKES   SUNNY     75  39  27 NW5       29.99R
PHILLIPS       CLOUDY    75  52  45 SW5       29.96S
TOMAHAWK       SUNNY     75  45  33 W5        29.98R
MEDFORD        SUNNY     75  53  46 S6        29.97S
MERRILL        SUNNY     77  50  38 W8        29.98S
$$

WIZ029-030-035-036-043>047-310100-
CENTRAL WISCONSIN

CITY           SKY/WX    TMP DP  RH WIND       PRES   REMARKS
WAUSAU         SUNNY     78  49  35 SW6       29.96S
6HR MIN TEMP:  77; 6HR MAX TEMP:  80;

MOSINEE        SUNNY     75  48  38 W5        29.99S
MARSHFIELD     SUNNY     79  47  32 CALM      29.96F
6HR MIN TEMP:  76; 6HR MAX TEMP:  80;

STEVENS POINT  SUNNY     76  47  34 W3        29.98S
WAUPACA        SUNNY     81  45  28 NW3       29.97S
WAUTOMA        SUNNY    N/A N/A N/A N6        29.97S
WISC RAPIDS    MOSUNNY   80  44  27 NE6       29.98S
6HR MIN TEMP:  79; 6HR MAX TEMP:  83;

CAMP DOUGLAS   NOT AVBL
$$

WIZ011>013-019>022-031-037>040-048>050-310100-
NORTHEAST WISCONSIN

CITY           SKY/WX    TMP DP  RH WIND       PRES   REMARKS
ANTIGO         SUNNY     74  53  46 CALM      29.98S
SHAWANO        SUNNY     81  46  30 W7        29.96S HX  80
OCONTO         SUNNY     79  50  35 CALM      29.94S
STURGEON BAY   NOT AVBL
GREEN BAY      SUNNY     80  51  36 W3        29.96S HX  80
6HR MIN TEMP:  78; 6HR MAX TEMP:  82;

MANITOWOC      NOT AVBL
APPLETON       MOSUNNY   77  43  29 CALM      29.96S
CLINTONVILLE   SUNNY     79  45  29 W3        29.96S
OSHKOSH        SUNNY     76  52  43 SE7       29.97S
6HR MIN TEMP:  76; 6HR MAX TEMP:  81;

$$

WIZ032>034-041-042-053>061-310100-
SOUTHWEST WISCONSIN

CITY           SKY/WX    TMP DP  RH WIND       PRES   REMARKS
LA CROSSE      SUNNY     82  47  29 S7        29.92F HX  80
6HR MIN TEMP:  80; 6HR MAX TEMP:  85;

SPARTA         SUNNY     81  48  32 S3        29.95F HX  80
VIROQUA        SUNNY     79  47  32 SE8       29.97S
BOSCOBEL       MOSUNNY   80  54  40 CALM      29.94F HX  80
6HR MIN TEMP:  80; 6HR MAX TEMP:  86;

PRAIRIE DU CHI MOSUNNY   82  46  28 SE3       29.93F HX  80
PLATTEVILLE    SUNNY     82  44  26 CALM      29.96F HX  80
$$

WIZ056-057-062-063-064-067-068-310100-
SOUTH CENTRAL WISCONSIN

CITY           SKY/WX    TMP DP  RH WIND       PRES   REMARKS
REEDSBURG      SUNNY     79  52  38 S3        29.96F
BARABOO/DELLS  SUNNY     81  41  24 W3        29.97S
LONE ROCK      NOT AVBL
MINERAL POINT  HAZE      81  45  28 CALM      29.97F VSB 1
MADISON        MOSUNNY   79  57  46 N3        29.97S HX  80
6HR MIN TEMP:  78; 6HR MAX TEMP:  82;

MIDDLETON      SUNNY     80  46  29 CALM      29.98F
WATERTOWN      SUNNY     78  53  41 NW3       29.98S
MONROE         SUNNY     81  41  24 CALM      29.97F
JANESVILLE     MOSUNNY   82  45  26 N7        29.96F HX  80
$$

WIZ051-052-058>065-066-070>072-310100-
SOUTHEAST WISCONSIN

CITY           SKY/WX    TMP DP  RH WIND       PRES   REMARKS
MILWAUKEE      MOSUNNY   70  58  65 SE8       29.99R
6HR MIN TEMP:  70; 6HR MAX TEMP:  76;

WAUKESHA       SUNNY     75  55  50 N9        29.99S
MILWAUKEE/TIMM SUNNY     73  52  46 SE8       30.00R
RACINE         SUNNY     70  57  63 E6        30.00S
6HR MIN TEMP:  70; 6HR MAX TEMP:  75;

BURLINGTON     SUNNY     80  49  33 E7        29.97S HX  80
KENOSHA        SUNNY     74  56  53 E7        29.98S
6HR MIN TEMP:  74; 6HR MAX TEMP:  84;

FOND DU LAC    SUNNY     80  47  31 CALM      29.97S
6HR MIN TEMP:  77; 6HR MAX TEMP:  81;

SHEBOYGAN      SUNNY     73  56  54 S9        29.98S
6HR MIN TEMP:  73; 6HR MAX TEMP:  80;

WEST BEND      SUNNY     72  55  56 SE8       29.99R
JUNEAU         SUNNY     78  53  41 E3        29.99S
$$

LSZ147-162-310100-
LAKE SUPERIOR

STATION/POSITION TIME  TEMP    WIND        PRES    WAVE
                       AIR SEA DIR/SP/G            HT/PER
                 (UTC) (F)     (DEG/KT/KT) (MB)    (FT/S)
W MID LAKE BUOY  2250   50 38  220/  6/  6 1014.3F   1
DEVILS ISLAND    2300   69      60/  3/  4 1013.6F
SAXON HARBOR     2300   70      60/  7/  9 1013.5S
$$

LMZ867-665-643>646-310100-
LAKE MICHIGAN

STATION/POSITION TIME  TEMP    WIND        PRES    WAVE
                       AIR SEA DIR/SP/G            HT/PER
                 (UTC) (F)     (DEG/KT/KT) (MB)    (FT/S)
CHAMBERS ISLAND  2300   74     140/  3/  6 1013.5F
N MID LAKE BUOY  2250   53 50  200/ 10/ 10 1013.8F   1
NORTHPORT PIER   2300   69     170/  7/ 12 1013.9S
KEWAUNEE LAKESHO 2300   60                   N/A
SHEBOYGAN LAKESH 2300   67     180/ 15/ 15 1015.3S
PORT WASHINGTON  2300   67     180/  3/  5 1016.3
S MID LAKE BUOY  2250   61 59   70/  6/  6 1015.0F   0
KENOSHA   LAKESH 2300   65     130/  2/  4 1014.9S
$$

TC  - TEMPERATURE IN CELSIUS
VSB - VISIBILITY IN STATUTE MILES
WCI - WIND CHILL INDEX
HX  - HEAT INDEX




USA.gov is the U.S. government's official web portal to all federal, state and local government web resources and services.